Regional Weather Roundup
Issued by NWS Austin/San Antonio, TX

Home | Current Version | Previous Version | Text Only | Print | Product List | Glossary On
Versions: 1 2 3 4 5 6 7 8 9 10 11 12 13 14 15 16 17 18 19 20 21 22 23 24 25 26 27 28 29 30 31 32 33 34 35 36 37 38 39 40 41 42 43 44 45 46 47 48 49 50
000
ASUS44 KEWX 221702
RWREWX
SOUTH TEXAS REGIONAL WEATHER ROUNDUP
NATIONAL WEATHER SERVICE AUSTIN/SAN ANTONIO TX
1200 PM CDT TUE AUG 22 2017

NOTE: "FAIR" INDICATED FEW OR NO CLOUDS BELOW 12,000 FEET WITH NO
SIGNIFICANT WEATHER AND/OR OBSTRUCTIONS TO VISIBILITY.

* - THESE STATIONS ARE NOT NWS OR FAA STATIONS...AND ARE NOT SUBJECT
    TO NWS AND FAA QUALITY CONTROL.

TXZ171-172-183>190-221800-
TEXAS HILL COUNTRY AND EDWARDS PLATEAU

CITY           SKY/WX    TMP DP  RH WIND       PRES   REMARKS
JUNCTION       SUNNY     87  66  49 CALM      30.13S
*LLANO         SUNNY     88  70  55 SE6       30.14S HX  92
BURNET         SUNNY     87  70  56 MISG      30.13F HX  92
*HORSESHOE BAY SUNNY     90  69  50 E5        30.11S HX  94
*KERRVILLE     SUNNY     85  71  61 SE7       30.13F HX  90
*FREDERICKSBRG SUNNY     83  66  56 SW3       30.14S
*ROCKSPRINGS   NOT AVBL
*BOERNE STAGE  MOSUNNY   82  64  54 SW3       30.14R
*CASTROVILLE   SUNNY     87  67  51 CALM      30.11R
HONDO          MOSUNNY   89  70  53 SE8       30.10R HX  94
*UVALDE        SUNNY     87  67  50 CALM      30.09S HX  90
DEL RIO        SUNNY     89  70  53 SE9       30.06F HX  94
LAUGHLIN AFB   MOSUNNY   89  69  52 SW7       30.07S HX  93
CARRIZO SPRGS  SUNNY     90  68  48 E7        30.05F HX  93
*EAGLE PASS    NOT AVBL
$$

TXZ173-191>194-202-209-217>225-228-221800-
CENTRAL AND SOUTH CENTRAL TEXAS

CITY           SKY/WX    TMP DP  RH WIND       PRES   REMARKS
GEORGETOWN     SUNNY     89  70  53 W6        30.11S HX  94
AUSTIN/BERGSTM MOSUNNY   91  71  51 S6        30.08S HX  97
AUSTIN/MABRY   SUNNY     92  69  47 CALM      30.09F HX  97
*AUSTIN/EXEC   SUNNY     90  72  55 S3        30.10S HX  96
*LAGO VISTA    SUNNY     88  70  55 W7        30.12F HX  93
SAN MARCOS     SUNNY     91  70  49 VRB7      30.10R HX  96
NEW BRAUNFELS  MOSUNNY   90  70  51 VRB3      30.08S HX  95
RANDOLPH AFB   SUNNY     88  69  53 S6        30.10R HX  92
PT SAN ANTONIO MOSUNNY   87  71  58 CALM      30.08S HX  93
SAN ANTONIO    MOSUNNY   88  70  55 VRB7      30.10S HX  93
STINSON FIELD  CLOUDY    88  72  58 S6        30.07S HX  94
*LA GRANGE     SUNNY     92  72  51 CALM      30.06F HX 100
*GIDDINGS      MOSUNNY   89  68  49 S3        30.10S HX  92
*GONZALES      PTSUNNY   92  71  50 SE3       30.08S HX  98
$$

TXZ163>164-176>182-195>201-210>213-226-227-235-221800-
SOUTHEAST TEXAS

CITY           SKY/WX    TMP DP  RH WIND       PRES   REMARKS
COLLEGE STN    SUNNY     89  71  55 VRB5      30.08F HX  95
*BRYAN         MOSUNNY   97  70  41 W5        30.10S HX 104
*CALDWELL      NOT AVBL
*CROCKETT      SUNNY     90  72  55 SE3       30.12S HX  96
*BRENHAM       SUNNY     91  70  49 CALM      30.09F HX  97
HUNTSVILLE     MOSUNNY   90  68  48 NW5       30.09F HX  94
CONROE         PTSUNNY   90  72  55 CALM      30.09F HX  97
HOUSTON BUSH   MOSUNNY   91  73  55 CALM      30.08F HX  99
HOUSTON HOBBY  MOSUNNY   94  69  44 VRB5      30.07S HX  99
*HOUSTON SW AP SUNNY     91  71  52 S5        30.08F HX  97
PEARLAND       SUNNY     92  67  43 S5        30.09S HX  95
HOUSTON HOOKS  MOSUNNY   91  72  53 VRB3      30.09S HX  98
ELLINGTON FLD  MOSUNNY   91  73  55 NW3       30.09F HX 100
SUGAR LAND     SUNNY     93  72  50 N5        30.08S HX 101
*HOUSTON EXEC  CLOUDY    88  73  62 W3        30.10S HX  96
*CLEVELAND MUN MOSUNNY   88  74  63 CALM      30.10F HX  96
*WHARTON       SUNNY     89  69  50 NE5       30.08S HX  93
*COLUMBUS      FAIR      90  69  48 SE5       30.09S HX  94
*EAGLE LAKE    SUNNY     91  74  58 CALM      30.08S HX 100
$$

TXZ214>216-236>238-221800-
THE UPPER TEXAS COAST

CITY           SKY/WX    TMP DP  RH WIND       PRES   REMARKS
*ORANGE        PTSUNNY   87  78  74 CALM      30.10S HX  98
PORT ARTHUR    PTSUNNY   88  75  65 E5        30.07F HX  97
GALVESTON      LGT RAIN  86  76  71 N6        30.09R HX  96
ANGLETON       MOSUNNY   91  74  57 CALM      30.07F HX 100
*BAY CITY      MOSUNNY   90  74  58 CALM      30.07S HX  99
PALACIOS       SUNNY     90  72  55 VRB5      30.06S HX  97
$$

TXZ229>234-239>247-221800-
TEXAS COASTAL BEND AND RIO GRANDE PLAINS

CITY           SKY/WX    TMP DP  RH WIND       PRES   REMARKS
VICTORIA       MOSUNNY   92  70  48 E3        30.07S HX  97
*BEEVILLE      MOSUNNY   93  70  46 E5        30.06S HX  98
ROCKPORT       MOSUNNY   91  74  57 SE10      30.05S HX 100
*PORT ARANSAS  MOSUNNY   87  76  70 E8        30.06S HX  98
*PORT LAVACA   SUNNY     90  71  54 E10       30.07S HX  96
*INGLESIDE     MOSUNNY   92  74  55 MISG      30.05S HX 102
CORPUS CHRISTI MOSUNNY   90  75  61 E10       30.05R HX 100
CORPUS NAS     MOSUNNY   92  77  61 SE13      30.05S HX 105
*ROBSTOWN      PTSUNNY   90  71  54 E10       30.05S HX  97
ALICE          PTSUNNY   93  68  43 E9        30.04S HX  97
KINGSVILLE NAS PTSUNNY   92  73  53 E8        30.04S HX 100
COTULLA        MOSUNNY   91  68  46 SE6       30.06S HX  95
*FAITH RANCH   MOSUNNY   90  68  48 VRB6      30.06S HX  93
LAREDO         SUNNY     92  71  50 S5        30.05S HX  98
$$

TXZ248>255-221800-
DEEP SOUTH TEXAS

CITY           SKY/WX    TMP DP  RH WIND       PRES   REMARKS
BROWNSVILLE    CLOUDY    80  76  87 VRB5      30.04R
PORT ISABEL    SUNNY     90  76  63 E14       30.03R HX 101
*SOUTH PADRE   NOT AVBL
HARLINGEN      PTSUNNY   93  72  50 E14       30.02S HX 101
*HEBBRONVILLE  MOSUNNY   89  67  49 S7        30.07S HX  91
MCALLEN        PTSUNNY   91  72  53 E8        30.03S HX  98
*WESLACO       MOSUNNY   91  71  51 SE6       30.02S HX  97
FALFURRIAS     MOSUNNY   92  67  44 CALM      30.03F HX  95
EDINBURG       PTSUNNY   93  69  44 SE6       30.03F HX  98
*ZAPATA        PTSUNNY   92  67  44 E7        30.03S HX  95
$$

TXZ213>215-236>238-242>244-246-247-251-254-255-221800-
CMAN STATIONS

STATION/POSITION TIME  TEMP    WIND        PRES    WAVE
                       AIR SEA DIR/SP/G            HT/PER
                 (UTC) (F)     (DEG/KT/KT) (MB)    (FT/S)
SABINE PASS      1630   86 90  310/  7/ 10 1020.2
SEA RIM ST PARK  1600   86     120/  2/  4 1019.1
NORTH JETTY/GLS  1630      88   30/  4/  6 1018.3
EAGLE POINT      1630   85 88   50/  7/  9 1019.0
MORGANS POINT    1630   87 88   70/  3/  5 1018.7
MISSION/ARANSAS  1600          120/  6     1018.0
PORT O`CONNOR    1630   87     100/  7/  8 1017.8
PORT ARANSAS     1600   83 85   60/ 10/ 10 1017.9
MALAQUITE BEACH  1630   83 86   70/  8/  9 1017.3
BAFFIN BAY       1630   85 87              1017.9
PORT ISABEL      1630   84 84              1017.2
$$




USA.gov is the U.S. government's official web portal to all federal, state and local government web resources and services.